Weather Roundup
Issued by NWS

Home | Current Version | Previous Version | Graphics & Text | Print | Product List | Glossary Off
Versions: 1 2 3 4 5 6 7 8 9 10 11 12 13 14 15 16 17 18 19 20 21 22 23 24 25 26 27 28 29 30 31 32 33 34 35 36 37 38 39 40 41 42 43 44 45 46 47 48 49 50

000
NZUS93 KARX 240110
HRRWXR

CURRENT HOURLY OBSERVATIONS ACROSS
MUCH OF THE UPPER MISSISSIPPI VALLEY
NATIONAL WEATHER SERVICE LA CROSSE WI
800 PM CDT TUE MAY 23 2017


...SOUTHEAST MINNESOTA...


CITY           SKY/WX    TMP DP  RH WIND       PRES   REMARKS
ROCHESTER      CLOUDY    51  49  92 N10       29.77S
ROCHESTER/MAYO NOT AVBL
WINONA         CLOUDY    55  46  71 N3        29.75R
AUSTIN         DRIZZLE   52  46  82 N5        29.76S
ALBERT LEA     LGT RAIN  52  52 100 N7        29.78S
DODGE CENTER   CLOUDY    52  48  87 N8        29.78S
PRESTON        CLOUDY    51  48  89 N7G16     29.75S
OWATONNA       CLOUDY    52  48  87 N5        29.79S
FARIBAULT      CLOUDY    55  48  76 N7        29.80R
$$

...ELSEWHERE IN MINNESOTA...


CITY           SKY/WX    TMP DP  RH WIND       PRES   REMARKS
MINNEAPOLIS    CLOUDY    58  47  66 VRB7      29.80R
INTNL FALLS    PTCLDY    54  42  64 N5        29.93F
DULUTH         LGT RAIN  49  46  90 E12       29.89R
RED WING       CLOUDY    55  46  71 N3        29.77S
REDWOOD FALLS  MOCLDY    58  44  60 N8        29.83S
MANKATO        CLOUDY    54  48  82 N6        29.81S
WORTHINGTON    LGT RAIN  50  47  89 N8        29.85R
FAIRMONT       CLOUDY    53  47  79 N10       29.81R
$$

...SOUTHWEST WISCONSIN...


CITY           SKY/WX    TMP DP  RH WIND       PRES   REMARKS
LA CROSSE      LGT RAIN  55  53  93 N6        29.73S
PRAIRIE DU CHI PTCLDY    56  51  80 NW5       29.71R
BOSCOBEL       LGT RAIN  59  52  77 NE5       29.70S
LONE ROCK      CLOUDY    55  49  80 N13       29.70R
PLATTEVILLE    MOCLDY    55  51  89 N7        29.70S
FORT MC COY    RAIN      51  51  97 NE7       29.74R
CAMP DOUGLAS   LGT RAIN  52  50  93 E7        29.74S
MAUSTON-NEW LI RAIN      52  51  97 NE3       29.74S
VIROQUA        CLOUDY    53  51  92 MISG      29.73R
WIS DELLS      CLOUDY    52  49  92 NW5       29.73R
$$

...ELSEWHERE IN WISCONSIN...


CITY           SKY/WX    TMP DP  RH WIND       PRES   REMARKS
MILWAUKEE      LGT RAIN  57  55  93 N7        29.73R FOG
MADISON        CLOUDY    56  55  97 SE3       29.70R
GREEN BAY      LGT RAIN  50  50 100 NE7       29.78S
EAU CLAIRE     CLOUDY    57  44  62 NE9       29.77R
BLACK RVR FLS  RAIN      55  49  82 CALM      29.75R
MEDFORD        CLOUDY    53  46  75 NE7       29.77R
WAUSAU         CLOUDY    54  45  71 E6        29.76R
WIS RAPIDS     CLOUDY    52  45  77 E12G20    29.77R
MARSHFIELD     CLOUDY    54  45  71 E8        29.76R
RICE LAKE      CLOUDY    54  44  68 N12G18    29.82S
$$

...NORTHEAST IOWA...


CITY           SKY/WX    TMP DP  RH WIND       PRES   REMARKS
WATERLOO       PTCLDY    54  46  74 NW8       29.72S
DUBUQUE        CLOUDY    56  50  80 NW10      29.70S
DECORAH        CLOUDY    54  50  87 N9        29.72R
MASON CITY     LGT RAIN  50  48  93 N12       29.78R FOG
CHARLES CITY   CLOUDY    54  52  94 N13       29.74S
OELWEIN        CLOUDY    54  50  87 NW8       29.73S
$$

...ELSEWHERE IN IOWA...


CITY           SKY/WX    TMP DP  RH WIND       PRES   REMARKS
DES MOINES     CLOUDY    55  46  71 W6        29.76R
IOWA CITY      CLOUDY    58  48  69 NW5       29.73S
FORT DODGE     PTCLDY    54  46  76 N6        29.79R
MARSHALLTOWN   CLOUDY    54  48  80 N12       29.74R
CEDAR RAPIDS   CLOUDY    56  51  84 N5        29.71F
$$

...NORTHERN ILLINOIS...


CITY           SKY/WX    TMP DP  RH WIND       PRES   REMARKS
CHICAGO-OHARE  LGT RAIN  58  55  90 SE5       29.70S
CHICAGO-MIDWAY CLOUDY    58  55  90 CALM      29.71R
MOLINE         PTCLDY    58  50  75 W3        29.70S
ROCKFORD       MOCLDY    57  54  89 E5        29.71S
PEORIA         CLOUDY    58  57  97 CALM      29.70S
$$

NOTE: "FAIR" INDICATES FEW OR NO CLOUDS BELOW 12,000 FEET WITH NO
SIGNIFICANT WEATHER AND/OR OBSTRUCTIONS TO VISIBILITY. WIND
SPEEDS ARE IN MILES-PER-HOUR.




USA.gov is the U.S. government's official web portal to all federal, state and local government web resources and services.